Tracking 19903 objects as of 16-Oct-2019
HD Live streaming from Space Station
objects crossing your sky now

COSMOS 1275 DEB

Track COSMOS 1275 DEB now!
10-day predictions


NORAD ID: 13796
Int'l Code: 1981-053GT
Perigee: 894.3 km
Apogee: 1,065.8 km
Inclination: 83.0 °
Period: 104.5 minutes
Semi major axis: 7351 km
RCS: 0.0167 m2 (small)
Launch date: June 4, 1981
Source: Commonwealth of Independent States (former USSR) (CIS)
Launch site: PLESETSK MISSILE AND SPACE COMPLEX (PKMTR)

Note: This is SATELLITE DEBRIS
aabbcc
Your satellite tracking list
Your tracking list is empty




NASA's NSSDC Master Catalog

Two Line Element Set (TLE):
1 13796U 81053GQ  19288.64723939 +.00000353 +00000-0 +32199-3 0  9992
2 13796 083.0226 141.5016 0116655 150.8257 270.8794 13.77463380846837
Source of the keplerian elements: AFSPC